Location: Unspecified
(44.0704°N, 88.6889°W)
Time: 15:18:37
(UTC+02:00)

Transit 2A - Pass Details

Date: 23 June 2019
Orbit: 594 x 965 km, 66.7° (Epoch: 17 July)

Event Time Altitude Azimuth Distance (km) Brightness Sun altitude
Rises 08:31:50 0° 224° (SW) 3,621 - -22.0°
Reaches altitude 10° 08:34:26 10° 228° (SW) 2,691 - -22.0°
Exits shadow 08:37:19 28° 239° (WSW) 1,736 7.5 -21.9°
Maximum altitude 08:40:41 57° 306° (NW) 1,118 6.9 -21.8°
Drops below altitude 10° 08:46:51 10° 25° (NNE) 2,645 9.9 -21.5°
Sets 08:49:23 0° 30° (NNE) 3,555 10.8 -21.4°
